Regional Weather Roundup
Issued by NWS Spokane, WA

Home | Current Version | Previous Version | Text Only | Print | Product List | Glossary On
Versions: 1 2 3 4 5 6 7 8 9 10 11 12 13 14 15 16 17 18 19 20 21 22 23 24 25 26 27 28 29 30 31 32 33 34 35 36 37 38 39 40 41 42 43 44 45 46 47 48 49 50
000
NZUS01 KOTX 202325
RWROTX

Eastern Washington/Northern Idaho Roundup
National Weather Service, Spokane WA
300 PM PST MON NOV 20 2017

Note: "fair" indicated few or no clouds below 12,000 feet with no
significant weather and/or obstructions to visibility.

...Northeast Washington and Northern Idaho Panhandle...

CITY           SKY/WX    TMP DP  RH WIND       PRES   REMARKS
Spokane Intl   CLOUDY    47  45  93 W18       29.68R
Spokane Downto LGT RAIN  49  45  86 SW13      29.68R
Coeur d Alene  RAIN      43  41  93 VRB5      29.69
Deer Park      LGT RAIN  41  40  96 N6        29.71R FOG
Sandpoint      RAIN      37  36  93 NE8       29.73R
Bonners Ferry  MIX PCPN  34  32  93 CALM      29.74R

...Southeast Washington and southern Idaho Panhandle...

CITY           SKY/WX    TMP DP  RH WIND       PRES   REMARKS
Walla Walla    LGT RAIN  55  45  68 SW20G30   29.80R
Pullman/Moscow MOCLDY    48  44  86 SW17      29.77R
Lewiston       LGT RAIN  48  46  93 SE8       29.78R
Lowell           N/A     40  39  97 N3        29.84R
Grangeville    CLOUDY    45  37  76 SW14      29.77R

...Columbia Basin...

CITY           SKY/WX    TMP DP  RH WIND       PRES   REMARKS
Ephrata        CLEAR     50  39  66 NE3       29.73R
Moses Lake     CLEAR     48  44  86 VRB3      29.74R
Pasco          SUNNY     61  39  44 W23       29.78R
Richland       CLEAR     59  38  44 SW18G25   29.78R
Hermiston      SUNNY     56  46  69 SW16G24   29.81R
Pendleton      PTSUNNY   52  45  77 W21G29    29.82R

...East Slopes Cascades...

CITY           SKY/WX    TMP DP  RH WIND       PRES   REMARKS
The Dalles     MOSUNNY   55  44  66 NW15      29.85R
Yakima         SUNNY     57  35  43 W20G29    29.77R
Ellensburg     SUNNY     50  38  63 NW20      29.76R
Stampede Pass  CLOUDY    33  32  96 SW10G22   29.80R WCI  25
Wenatchee      CLEAR     45  40  82 SW3       29.73R
Omak           CLOUDY    40  40 100 N6        29.74R
Chelan           N/A     39  34  81 MISG        N/A
Sunnyside      CLEAR     55  37  50 W9        29.78R

...Southern British Columbia...

CITY           SKY/WX    TMP DP  RH WIND       PRES   REMARKS
Penticton      CLOUDY    39  37  93 NW5       29.79R
Castlegar      LGT RAIN  36  34  93 CALM      29.76R
Cranbrook      MOCLDY    39  34  81 NW2       29.71R
Osoyoos          N/A     41  37  87 NE3         N/A
Creston          N/A     37  36  93 E2          N/A

...Western Montana...

CITY           SKY/WX    TMP DP  RH WIND       PRES   REMARKS
Kalispell      LGT RAIN  40  39  97 S9        29.76R
Libby            N/A     37  37 100 CALM      29.72R
Missoula       LGT RAIN  39  39 100 NW9       29.80R FOG

...Neighboring Cities...

CITY           SKY/WX    TMP DP  RH WIND       PRES   REMARKS
Seattle        PTSUNNY   49  43  80 SW13      29.87R
Portland       CLOUDY    54  47  77 W3        29.92R
Boise          CLOUDY    47  40  76 SE18G25   29.95R
Great Falls    LGT SNOW  30  23  75 E12       29.78R WCI  20
Calgary        FLURRIES  19  14  79 N9        29.86R WCI   9



USA.gov is the U.S. government's official web portal to all federal, state and local government web resources and services.